Погода в Антипихе

Россия / Забайкальский край     51°59′40″N   113°33′29″E
темп.,
°C
ветер,
м/с
пор.,
м/с
влажн.,
%
обл.,
%
осадки,
мм/ч
давл.,
гПа
погр.,
м
26 февраля, пт
пт2600:00−16вюв1292100 0.0 102621
03:00−16вюв2493100 0.0 1024177
06:00−15вюв2991100 0.1 1022439
09:00−17вюв31194100 0.1 1021549
12:00−13юв4885100 0.1 1020648
15:00−10вюв4683100 0.3 1017713
18:00−11вюв4887100 0.1 1015682
21:00−13всв3795100 1.6 1015436
27 февраля, сб
сб2700:00−14ссв2297100 1.5 1014110
03:00−14зсз1297100 2.3 101387
06:00−16зсз279692 0.1 1015207
09:00−17зсз5137882 0.2 1018646
12:00−16зсз8127516 0.0 1020859
15:00−14зсз8136558 0.0 10221405
18:00−16зсз7126657 0.0 10271448
21:00−23з397829 0.0 1033204
28 февраля, вс
вс2800:00−25з310810 0.0 1036234
03:00−26з39820 0.0 1038206
06:00−28зюз35850 0.0 1040110
09:00−28зюз22860 0.0 104244
12:00−20зсз47680 0.0 10401059
15:00−18зсз58647 0.0 10381369
18:00−18зсз387086 0.0 10371094
21:00−25з128059 0.0 104120
1 марта, пн
пн100:00−27юз12820 0.0 104319
03:00−28юз118813 0.0 104319
06:00−27зюз019099 0.0 104219
09:00−26зюз119699 0.0 104221
12:00−19зюз238366 0.0 1037399
15:00−15зюз367972 0.0 1033888
18:00−15зсз3674100 0.2 1031834
21:00−22юз118473 0.2 103220
2 марта, вт
вт200:00−25юз11910 0.0 103220
03:00−26юз119610 0.0 103120
06:00−28в001002 0.0 102919
09:00−25всв019842 0.0 102821
12:00−19зсз0183100 0.0 1024292
15:00−15зсз117798 0.0 1020411
18:00−15з118395 0.0 1019106
21:00−20всв119294 0.0 102020